Back to catalog

KUIPER-00010

AliveCommunicationsLEO
NORAD 63726·PAYLOAD·🇺🇸 United States

Launched Apr 28, 2025 from Cape Canaveral Space Force Station

Loading…

Next Passes (next 24 hours)

TLE

FreshSource: CelesTrak SupGP

Epoch: Sep 14, 2026, 16:46 UTC

1 63726C 25088C   26257.69873843  .00007746  00000+0  10142-2 0  2577
2 63726  51.9018 327.3225 0000445  87.0094 140.1315 14.79914248    10

Track KUIPER-00010 in real time with AllMySat

Download on the App Store